Location: Bletchingley
(51.2333°N, 0.1000°W)
Time: 15:32:58
(UTC+00:00)

Cosmos 2266 Rocket - Pass Details

Date: 22 January 2021
Orbit: 934 x 1008 km, 82.9° (Epoch: 05 March)

Event Time Altitude Azimuth Distance (km) Brightness Sun altitude
Rises 04:52:56 0° 358° (N) 3,631 7.0 -27.5°
Reaches altitude 10° 04:57:11 10° 26° (NNE) 2,668 6.6 -26.8°
Maximum altitude 04:59:47 13° 52° (NE) 2,458 6.7 -26.4°
Drops below altitude 10° 05:02:23 10° 78° (ENE) 2,652 7.3 -26.0°
Sets 05:06:33 0° 106° (ESE) 3,588 8.2 -25.3°
